Total_Precipitation_Accumulation
0.08 0.07 0.06 0.16 0.22 0.44 0.97 1.84 2.31 1.55 1.28 1.01 1.09 0.83 0.71 0.52 0.38 0.33 0.30 0.25 0.34 0.33 0.22 0.08 0.01 0.00 0.00 0.00 0.00 0.00 0.00 0.00
0.03 0.13 0.10 0.10 0.19 0.34 0.77 1.92 2.81 1.91 1.66 1.53 1.10 0.94 0.78 0.49 0.33 0.40 0.54 0.50 0.36 0.24 0.26 0.16 0.05 0.00 0.00 0.00 0.00 0.00 0.00 0.00
0.03 0.11 0.16 0.18 0.22 0.22 0.27 0.62 1.81 2.82 1.92 1.66 1.43 0.57 0.56 0.43 0.38 0.44 0.46 0.55 0.56 0.45 0.35 0.17 0.07 0.02 0.00 0.00 0.00 0.00 0.00 0.00
0.06 0.05 0.24 0.29 0.24 0.36 0.25 0.26 0.51 1.92 2.28 1.80 1.20 0.67 0.55 0.52 0.35 0.45 0.56 0.44 0.60 0.59 0.40 0.18 0.10 0.01 0.01 0.00 0.00 0.00 0.00 0.00
0.03 0.08 0.18 0.17 0.16 0.20 0.28 0.42 0.43 0.78 1.89 1.65 1.06 0.72 0.53 0.71 0.30 0.40 0.78 0.69 0.61 0.51 0.29 0.16 0.10 0.03 0.01 0.00 0.00 0.00 0.00 0.00
0.02 0.02 0.01 0.01 0.17 0.44 0.27 0.43 0.55 0.52 1.28 1.53 1.04 0.66 0.34 0.48 0.18 0.27 0.80 0.77 0.49 0.28 0.17 0.14 0.08 0.04 0.01 0.00 0.00 0.00 0.00 0.00
0.01 0.02 0.01 0.01 0.03 0.23 0.24 0.28 0.55 0.37 0.58 1.29 1.09 0.62 0.24 0.26 0.21 0.21 0.58 0.56 0.64 0.31 0.18 0.12 0.05 0.02 0.00 0.00 0.00 0.00 0.00 0.00
0.01 0.02 0.03 0.02 0.02 0.06 0.08 0.17 0.39 0.52 0.47 0.72 1.17 0.67 0.34 0.33 0.26 0.17 0.34 0.34 0.50 0.47 0.16 0.09 0.04 0.00 0.00 0.00 0.00 0.00 0.00 0.00
0.01 0.02 0.04 0.04 0.02 0.09 0.05 0.10 0.24 0.46 0.47 0.64 0.95 0.73 0.51 0.36 0.34 0.18 0.18 0.19 0.23 0.34 0.13 0.07 0.02 0.00 0.00 0.00 0.00 0.00 0.00 0.00
0.01 0.01 0.02 0.05 0.03 0.21 0.17 0.06 0.12 0.30 0.38 0.54 0.79 0.83 0.57 0.46 0.34 0.18 0.18 0.16 0.11 0.17 0.05 0.04 0.02 0.01 0.00 0.00 0.00 0.00 0.00 0.00
0.01 0.02 0.01 0.05 0.08 0.12 0.14 0.12 0.09 0.18 0.24 0.35 0.62 0.92 0.56 0.43 0.40 0.24 0.23 0.19 0.09 0.08 0.03 0.03 0.01 0.01 0.00 0.00 0.00 0.00 0.00 0.00
0.01 0.02 0.02 0.03 0.11 0.08 0.15 0.17 0.10 0.15 0.12 0.28 0.50 0.99 0.68 0.54 0.54 0.33 0.33 0.23 0.17 0.09 0.03 0.03 0.02 0.00 0.00 0.00 0.00 0.00 0.00 0.00
0.01 0.02 0.02 0.03 0.08 0.10 0.08 0.11 0.06 0.08 0.08 0.29 0.40 0.70 0.82 0.51 0.42 0.34 0.23 0.16 0.11 0.05 0.01 0.01 0.01 0.00 0.00 0.00 0.00 0.00 0.00 0.00
0.01 0.01 0.02 0.02 0.02 0.02 0.02 0.02 0.03 0.04 0.04 0.15 0.61 0.62 0.66 0.53 0.35 0.22 0.16 0.13 0.10 0.04 0.01 0.01 0.00 0.01 0.00 0.01 0.02 0.01 0.00 0.00
0.00 0.01 0.01 0.01 0.01 0.02 0.01 0.05 0.11 0.11 0.08 0.10 0.34 0.41 0.50 0.45 0.40 0.22 0.13 0.11 0.05 0.01 0.00 0.01 0.06 0.01 0.01 0.12 0.16 0.12 0.12 0.03
0.00 0.00 0.01 0.01 0.02 0.02 0.01 0.02 0.05 0.05 0.05 0.05 0.11 0.21 0.34 0.42 0.38 0.29 0.13 0.11 0.04 0.01 0.00 0.00 0.14 0.14 0.02 0.01 0.04 0.13 0.18 0.20
0.00 0.00 0.01 0.01 0.01 0.02 0.02 0.01 0.01 0.02 0.05 0.08 0.08 0.14 0.23 0.39 0.43 0.31 0.16 0.08 0.05 0.06 0.04 0.06 0.12 0.12 0.03 0.08 0.05 0.10 0.10 0.09
0.00 0.00 0.00 0.01 0.01 0.02 0.01 0.01 0.01 0.01 0.02 0.03 0.04 0.10 0.15 0.27 0.48 0.36 0.21 0.14 0.11 0.09 0.10 0.11 0.17 0.16 0.07 0.06 0.05 0.07 0.07 0.08
0.00 0.00 0.00 0.00 0.01 0.01 0.01 0.01 0.00 0.00 0.01 0.01 0.00 0.03 0.05 0.08 0.18 0.29 0.23 0.15 0.11 0.13 0.11 0.12 0.13 0.09 0.08 0.05 0.05 0.03 0.03 0.11
0.00 0.00 0.00 0.00 0.01 0.01 0.01 0.00 0.01 0.00 0.00 0.01 0.01 0.01 0.01 0.02 0.03 0.10 0.14 0.15 0.07 0.07 0.07 0.07 0.07 0.07 0.07 0.07 0.05 0.04 0.04 0.10